User: anonymous   Login
Location: Unspecified
(0.0000°N, 0.0000°E)
Time: 22:14:34
(UTC+00:00)
Language:

OBJECT PG - Orbit

View from above orbital plane
View from above orbital plane
View from above satellite
View from above satellite

Ground track
Ground track

The orbit data is extracted from the following two-line orbital elements,

1 43595U 98067PG  19046.99612123  .00010521  00000-0  14412-3 0  9993
2 43595  51.6364 240.6215 0003135  14.3777 345.7303 15.57992915 28697
Epoch (UTC): 15 February 2019 23:54:24
Eccentricity: 0.0003135
inclination: 51.6364°
perigee height: 391 km
apogee height: 395 km
right ascension of ascending node: 240.6215°
argument of perigee: 14.3777°
revolutions per day: 15.57992915
mean anomaly at epoch: 345.7303°
orbit number at epoch: 2869

The dashed part of the orbit path shows where the satellite is in the earth's shadow,  

DLR